EA4TN Weather Reports


time (UTC)temp
C
wind
direction
speed
KPH
gust
KPH
rain 1hr
cm
rain 24hr
cm
rain mn
cm
humidity
%
barometer
mb
20260507023015 12 40 3.2 4.8 0.00 0.00 0.00 73 1010.7
20260507022015 12 53 3.2 9.7 0.00 0.00 0.00 73 1010.7
20260507021015 12 33 4.8 8.0 0.00 0.00 0.00 72 1010.9
20260507020015 12 33 4.8 16.1 0.00 0.00 0.00 72 1010.8
20260507015015 12 49 4.8 8.0 0.00 0.00 0.00 68 1010.7
20260507014016 12 49 3.2 9.7 0.00 0.00 0.00 67 1010.8
20260507013015 12 44 1.6 4.8 0.00 0.00 0.00 66 1010.7
20260507012035 12 42 3.2 4.8 0.00 0.00 0.00 65 1010.9
20260507011016 12 67 3.2 4.8 0.00 0.00 0.00 65 1010.9
20260507010015 12 43 3.2 6.4 0.00 0.00 0.00 63 1010.8
20260507005015 12 38 3.2 8.0 0.00 0.00 0.00 61 1010.8
20260507004015 12 75 3.2 9.7 0.00 0.00 0.00 60 1010.9
20260507003015 12 49 4.8 9.7 0.00 0.00 0.00 61 1010.9
20260507002015 12 57 4.8 11.3 0.00 0.00 0.00 59 1010.9
20260507001015 12 64 4.8 14.5 0.00 0.00 0.00 58 1010.9
20260507000015 12 53 8.0 16.1 0.00 0.00 0.00 57 1011.0
20260506235037 12 82 8.0 16.1 0.00 0.00 0.00 55 1011.0
20260506234057 13 52 8.0 14.5 0.00 0.00 0.00 54 1010.7
20260506233017 13 64 6.4 12.9 0.00 0.00 0.00 53 1010.5
20260506232017 13 47 8.0 14.5 0.00 0.00 0.00 52 1010.4
20260506231037 13 64 4.8 9.7 0.00 0.00 0.00 51 1010.4
20260506230017 13 49 6.4 14.5 0.00 0.00 0.00 50 1010.3
20260506225015 13 50 6.4 12.9 0.00 0.00 0.00 49 1010.4
20260506224017 14 53 6.4 14.5 0.00 0.00 0.00 48 1010.4
20260506223017 14 74 4.8 9.7 0.00 0.00 0.00 48 1010.3
20260506222017 14 75 6.4 9.7 0.00 0.00 0.00 48 1010.3
20260506221017 14 51 4.8 8.0 0.00 0.00 0.00 46 1010.1
20260506220017 14 50 4.8 6.4 0.00 0.00 0.00 46 1010.2
20260506215017 15 56 1.6 3.2 0.00 0.00 0.00 45 1010.3
20260506214017 15 56 1.6 4.8 0.00 0.00 0.00 44 1010.2
20260506213017 15 56 3.2 3.2 0.00 0.00 0.00 43 1010.3
20260506212017 15 55 1.6 3.2 0.00 0.00 0.00 42 1010.2
20260506211017 15 54 1.6 4.8 0.00 0.00 0.00 42 1010.1
20260506210017 15 68 1.6 1.6 0.00 0.00 0.00 42 1010.1
20260506205017 15 68 1.6 1.6 0.00 0.00 0.00 42 1010.0
20260506204035 15 68 0.0 1.6 0.00 0.00 0.00 40 1009.9
20260506203017 15 68 1.6 1.6 0.00 0.00 0.00 40 1009.9
20260506202015 16 68 1.6 1.6 0.00 0.00 0.00 40 1010.0
20260506201037 16 68 1.6 1.6 0.00 0.00 0.00 39 1009.8
20260506200015 16 68 0.0 1.6 0.00 0.00 0.00 38 1009.7
20260506195017 16 68 1.6 3.2 0.00 0.00 0.00 37 1009.6
20260506194017 17 68 1.6 3.2 0.00 0.00 0.00 36 1009.5
20260506193017 17 68 1.6 3.2 0.00 0.00 0.00 35 1009.7
20260506192017 18 68 1.6 3.2 0.00 0.00 0.00 34 1009.6
20260506191037 18 68 1.6 4.8 0.00 0.00 0.00 33 1009.5
20260506190018 19 73 3.2 4.8 0.00 0.00 0.00 31 1009.5
20260506185017 20 63 1.6 4.8 0.00 0.00 0.00 29 1009.7
20260506184037 21 314 0.0 3.2 0.00 0.00 0.00 28 1009.7
20260506183017 20 314 0.0 3.2 0.00 0.00 0.00 29 1009.5
20260506182017 20 313 1.6 6.4 0.00 0.00 0.00 29 1009.4
20260506181055 20 103 1.6 4.8 0.00 0.00 0.00 29 1009.4
20260506180015 20 114 3.2 8.0 0.00 0.00 0.00 30 1009.3
20260506175015 20 34 4.8 8.0 0.00 0.00 0.00 30 1009.6
20260506174015 20 51 3.2 8.0 0.00 0.00 0.00 30 1009.6
20260506173015 20 15 3.2 6.4 0.00 0.00 0.00 29 1009.7
20260506172015 20 19 3.2 8.0 0.00 0.00 0.00 29 1009.7
20260506171015 21 320 3.2 8.0 0.00 0.00 0.00 29 1009.7
20260506170015 21 270 3.2 9.7 0.00 0.00 0.00 29 1009.7
20260506165015 21 64 3.2 9.7 0.00 0.00 0.00 29 1009.9
20260506164015 21 111 3.2 8.0 0.00 0.00 0.00 30 1010.0
20260506163015 21 58 3.2 8.0 0.00 0.00 0.00 31 1010.0
20260506162055 20 15 3.2 12.9 0.00 0.00 0.00 31 1010.0
20260506161015 20 25 4.8 14.5 0.00 0.00 0.00 31 1010.0
20260506160035 20 5 4.8 11.3 0.00 0.00 0.00 31 1010.0
20260506155015 20 18 4.8 9.7 0.00 0.00 0.00 31 1010.1
20260506154035 20 248 3.2 11.3 0.00 0.00 0.00 31 1010.2
20260506153015 20 323 4.8 8.0 0.00 0.00 0.00 31 1010.3
20260506152015 20 350 3.2 9.7 0.00 0.00 0.00 32 1010.4
20260506151015 19 34 4.8 8.0 0.00 0.00 0.00 32 1010.6
20260506150015 19 273 1.6 6.4 0.00 0.00 0.00 34 1010.7
20260506145015 18 156 1.6 6.4 0.00 0.00 0.00 36 1010.7
20260506144015 18 119 1.6 4.8 0.00 0.00 0.00 36 1011.0
20260506143015 18 202 3.2 6.4 0.00 0.00 0.00 37 1011.2
20260506142015 18 33 3.2 11.3 0.00 0.00 0.00 36 1011.3
20260506141015 19 84 3.2 17.7 0.00 0.00 0.00 35 1011.5
20260506140015 20 61 6.4 14.5 0.00 0.00 0.00 34 1011.7
20260506135015 19 49 3.2 12.9 0.00 0.00 0.00 35 1011.7
20260506134015 18 43 1.6 11.3 0.00 0.00 0.00 36 1011.7
20260506133015 18 125 4.8 14.5 0.00 0.00 0.00 37 1011.8
20260506132015 19 222 4.8 11.3 0.00 0.00 0.00 36 1011.9
20260506131035 18 103 4.8 9.7 0.00 0.00 0.00 37 1012.0
20260506130015 18 111 9.7 16.1 0.00 0.00 0.00 38 1012.2
20260506125035 18 74 6.4 11.3 0.00 0.00 0.00 40 1012.2
20260506124015 17 39 6.4 11.3 0.00 0.00 0.00 40 1012.4
20260506123015 17 339 3.2 19.3 0.00 0.00 0.00 40 1012.4
20260506122016 17 263 3.2 9.7 0.00 0.00 0.00 40 1012.5
20260506121015 17 57 4.8 11.3 0.00 0.00 0.00 40 1012.6
20260506120015 17 56 8.0 17.7 0.00 0.00 0.00 41 1012.8
20260506115015 17 314 4.8 12.9 0.00 0.00 0.00 41 1012.8
20260506114015 17 89 8.0 19.3 0.00 0.00 0.00 42 1012.9
20260506113015 17 83 6.4 17.7 0.00 0.00 0.00 44 1013.0
20260506112015 17 107 6.4 16.1 0.00 0.00 0.00 45 1013.0
20260506111015 16 135 4.8 11.3 0.00 0.00 0.00 46 1013.1
20260506110015 16 119 8.0 16.1 0.00 0.00 0.00 46 1013.1
20260506105035 16 67 4.8 11.3 0.00 0.00 0.00 44 1013.2
20260506104055 16 88 4.8 12.9 0.00 0.00 0.00 46 1013.3
20260506103015 15 58 3.2 12.9 0.00 0.00 0.00 48 1013.2
20260506102015 16 91 4.8 12.9 0.00 0.00 0.00 49 1013.3
20260506101015 15 2 4.8 16.1 0.00 0.00 0.00 49 1013.5
20260506100015 15 79 3.2 12.9 0.00 0.00 0.00 49 1013.6
20260506095015 15 79 6.4 16.1 0.00 0.00 0.00 52 1013.6
20260506094015 15 79 4.8 12.9 0.00 0.00 0.00 50 1013.5
20260506093015 15 44 6.4 14.5 0.00 0.00 0.00 55 1013.5
20260506092015 14 126 4.8 12.9 0.00 0.00 0.00 58 1013.6
20260506091015 13 45 6.4 16.1 0.00 0.00 0.00 60 1013.6
20260506090015 13 65 4.8 14.5 0.00 0.00 0.00 61 1013.5
20260506085015 12 35 6.4 12.9 0.00 0.00 0.00 63 1013.6
20260506084015 12 53 6.4 12.9 0.00 0.00 0.00 64 1013.6
20260506083015 11 59 4.8 11.3 0.00 0.00 0.00 66 1013.6
20260506082015 11 82 6.4 14.5 0.00 0.00 0.00 67 1013.5
20260506081015 11 50 4.8 16.1 0.00 0.00 0.00 68 1013.4
20260506073015 10 49 4.8 11.3 0.00 0.00 0.00 71 1013.4
20260506072015 10 35 6.4 9.7 0.00 0.00 0.00 72 1013.4
20260506071056 10 57 6.4 9.7 0.00 0.00 0.00 72 1013.4
20260506062035 7 56 4.8 11.3 0.00 0.00 0.00 79 1012.9
20260506061015 7 58 4.8 11.3 0.00 0.00 0.00 79 1012.8
20260506051015 7 46 6.4 11.3 0.00 0.00 0.00 81 1012.4
20260506045016 7 43 4.8 9.7 0.00 0.00 0.00 80 1012.2
20260506044016 7 46 6.4 9.7 0.00 0.00 0.00 80 1012.1
20260506043035 7 51 4.8 11.3 0.00 0.00 0.00 80 1012.2
20260506042016 7 49 6.4 11.3 0.00 0.00 0.00 79 1012.3
20260506041015 7 51 8.0 14.5 0.00 0.00 0.00 78 1012.3
20260506040015 7 69 4.8 11.3 0.00 0.00 0.00 78 1012.4
20260506035016 7 47 6.4 11.3 0.00 0.00 0.00 77 1012.4
20260506034016 7 53 6.4 11.3 0.00 0.00 0.00 76 1012.5
20260506033015 8 64 4.8 9.7 0.00 0.00 0.00 76 1012.6
20260506032015 8 50 3.2 11.3 0.00 0.00 0.00 75 1012.6
20260506031016 8 44 6.4 14.5 0.00 0.00 0.00 75 1012.6
20260506030016 8 53 4.8 11.3 0.00 0.00 0.00 73 1012.5
20260506025016 8 55 3.2 8.0 0.00 0.00 0.00 72 1012.6
20260506024016 8 65 3.2 8.0 0.00 0.00 0.00 72 1012.5